QTR8158 SEQM-MPTO

Flight info

Callsign QTR8158
Flight time N/A
Altitude 40000
Route ENSOL UM674 TOKUT DCT MILAT DCT SIRIL SIRIL3C
Aircraft B77L/H-SDE1E2E3FGHIJ2J3J4J5M1RWXY/LB1D1

Departure

Time N/A
Airport Mariscal Sucre International Airport (SEQM)

Arrival

Time 2026-04-30 18:48
Airport Tocumen International Airport (MPTO)
Time Latitude Longitude Altitude Speed Heading
2026-04-30 17:39 1.61159 -78.72272 39857 ft 478 kts 348°
2026-04-30 17:42 1.94197 -78.76273 39851 ft 482 kts 348°
2026-04-30 17:43 2.10884 -78.78183 39848 ft 483 kts 348°
2026-04-30 17:44 2.30873 -78.80486 39847 ft 483 kts 348°
2026-04-30 17:47 2.60935 -78.83951 39849 ft 483 kts 348°
2026-04-30 17:48 2.84277 -78.86643 39841 ft 483 kts 348°
2026-04-30 17:50 3.10974 -78.89723 39849 ft 484 kts 348°
2026-04-30 17:52 3.31116 -78.92048 39829 ft 485 kts 348°
2026-04-30 17:54 3.61237 -78.95526 39835 ft 485 kts 348°
2026-04-30 17:56 3.88094 -78.98630 39850 ft 485 kts 348°
2026-04-30 17:58 4.08106 -79.00943 39846 ft 486 kts 348°
2026-04-30 18:00 4.34949 -79.04048 39832 ft 486 kts 348°
2026-04-30 18:01 4.50605 -79.05861 39846 ft 486 kts 349°
2026-04-30 18:02 4.70754 -79.08194 39833 ft 486 kts 349°
2026-04-30 18:04 4.90891 -79.10528 39844 ft 486 kts 349°
2026-04-30 18:06 5.17771 -79.13644 39845 ft 486 kts 349°
2026-04-30 18:08 5.41244 -79.16368 39830 ft 485 kts 349°
2026-04-30 18:10 5.68048 -79.19482 39844 ft 485 kts 349°
2026-04-30 18:11 5.91473 -79.22206 39844 ft 484 kts 349°
2026-04-30 18:13 6.08170 -79.24170 39842 ft 484 kts 349°
2026-04-30 18:14 6.24928 -79.26152 39821 ft 485 kts 349°
2026-04-30 18:15 6.44987 -79.28523 39824 ft 483 kts 349°
2026-04-30 18:16 6.58349 -79.30104 39823 ft 483 kts 349°
2026-04-30 18:17 6.64979 -79.30889 39823 ft 482 kts 349°
2026-04-30 18:18 6.74975 -79.32074 39836 ft 482 kts 349°
2026-04-30 18:18 6.81642 -79.32863 39824 ft 481 kts 349°
2026-04-30 18:19 6.88263 -79.33648 39825 ft 481 kts 349°
2026-04-30 18:19 6.94912 -79.34436 39838 ft 481 kts 349°
2026-04-30 18:20 7.01560 -79.35224 39833 ft 481 kts 349°
2026-04-30 18:20 7.08215 -79.36014 39828 ft 481 kts 349°
2026-04-30 18:21 7.14874 -79.36804 39823 ft 481 kts 349°
2026-04-30 18:21 7.21531 -79.37594 39821 ft 482 kts 349°
2026-04-30 18:22 7.28187 -79.38384 39820 ft 482 kts 349°
2026-04-30 18:22 7.37967 -79.40263 39820 ft 478 kts 343°
2026-04-30 18:23 7.44461 -79.41731 39823 ft 478 kts 343°
2026-04-30 18:23 7.50971 -79.43178 39822 ft 478 kts 343°
2026-04-30 18:24 7.57525 -79.44615 38924 ft 491 kts 343°
2026-04-30 18:24 7.60864 -79.45345 38105 ft 490 kts 343°
2026-04-30 18:24 7.64205 -79.46074 37191 ft 490 kts 343°
2026-04-30 18:25 7.67490 -79.46790 36330 ft 489 kts 343°
2026-04-30 18:25 7.74169 -79.48250 34358 ft 494 kts 343°
2026-04-30 18:25 7.77553 -79.48992 33182 ft 499 kts 343°
2026-04-30 18:26 7.84399 -79.50491 30722 ft 508 kts 344°
2026-04-30 18:26 7.87850 -79.51246 29811 ft 506 kts 345°
2026-04-30 18:26 7.91284 -79.51995 28820 ft 502 kts 345°
2026-04-30 18:27 7.97876 -79.53432 28415 ft 466 kts 345°
2026-04-30 18:27 8.00993 -79.54116 28220 ft 451 kts 345°
2026-04-30 18:28 8.06878 -79.55404 27826 ft 410 kts 345°
2026-04-30 18:28 8.09643 -79.55841 27513 ft 401 kts 354°
2026-04-30 18:28 8.15221 -79.55790 26581 ft 400 kts
2026-04-30 18:29 8.18002 -79.55682 26114 ft 399 kts
2026-04-30 18:29 8.26313 -79.55460 24686 ft 398 kts 359°
2026-04-30 18:30 8.30908 -79.55390 23896 ft 397 kts 359°
2026-04-30 18:30 8.37108 -79.55304 22752 ft 366 kts 359°
2026-04-30 18:31 8.39652 -79.55271 22299 ft 366 kts 359°
2026-04-30 18:31 8.44705 -79.55204 21408 ft 364 kts 360°
2026-04-30 18:32 8.49759 -79.55136 20553 ft 362 kts 360°
2026-04-30 18:32 8.52288 -79.55101 20119 ft 361 kts 360°
2026-04-30 18:32 8.57311 -79.55032 19248 ft 358 kts
2026-04-30 18:33 8.59740 -79.54607 18795 ft 356 kts 20°
2026-04-30 18:33 8.63794 -79.51813 17812 ft 353 kts 40°
2026-04-30 18:33 8.65677 -79.50237 17286 ft 344 kts 40°
2026-04-30 18:34 8.67466 -79.48741 16782 ft 326 kts 40°
2026-04-30 18:34 8.71037 -79.45788 15847 ft 345 kts 40°
2026-04-30 18:34 8.72922 -79.44242 15378 ft 351 kts 40°
2026-04-30 18:35 8.74824 -79.42686 14934 ft 352 kts 40°
2026-04-30 18:35 8.76673 -79.41176 14439 ft 331 kts 40°
2026-04-30 18:35 8.78423 -79.39750 13812 ft 316 kts 41°
2026-04-30 18:36 8.81843 -79.36960 12837 ft 318 kts 40°
2026-04-30 18:36 8.83561 -79.35557 12386 ft 317 kts 40°
2026-04-30 18:36 8.86974 -79.32771 11516 ft 313 kts 40°
2026-04-30 18:37 8.88665 -79.31390 11095 ft 312 kts 40°
2026-04-30 18:37 8.90351 -79.30012 10673 ft 310 kts 40°
2026-04-30 18:37 8.92025 -79.28645 10263 ft 308 kts 40°
2026-04-30 18:37 8.93626 -79.27338 9809 ft 285 kts 40°
2026-04-30 18:38 8.95167 -79.26080 9404 ft 284 kts 39°
2026-04-30 18:38 8.96706 -79.24836 9009 ft 280 kts 37°
2026-04-30 18:38 8.98368 -79.23838 8703 ft 275 kts 27°
2026-04-30 18:38 9.00087 -79.23005 8421 ft 275 kts 26°
2026-04-30 18:39 9.01808 -79.22196 8144 ft 275 kts 26°
2026-04-30 18:39 9.03531 -79.21378 7836 ft 271 kts 26°
2026-04-30 18:39 9.05224 -79.20561 7562 ft 270 kts 26°
2026-04-30 18:39 9.06918 -79.19734 7281 ft 269 kts 26°
2026-04-30 18:40 9.08590 -79.18913 7005 ft 265 kts 26°
2026-04-30 18:40 9.10250 -79.18092 6727 ft 266 kts 27°
2026-04-30 18:40 9.11904 -79.17273 6451 ft 263 kts 27°
2026-04-30 18:40 9.13535 -79.16464 6209 ft 259 kts 26°
2026-04-30 18:41 9.15110 -79.15682 5875 ft 240 kts 26°
2026-04-30 18:41 9.16568 -79.14959 5672 ft 232 kts 26°
2026-04-30 18:41 9.18017 -79.14299 5402 ft 224 kts 15°
2026-04-30 18:41 9.19543 -79.14340 5213 ft 223 kts 343°
2026-04-30 18:42 9.20865 -79.15189 4997 ft 231 kts 316°
2026-04-30 18:42 9.22436 -79.17991 4511 ft 230 kts 296°
2026-04-30 18:42 9.23121 -79.19460 4254 ft 232 kts 297°
2026-04-30 18:45 9.16509 -79.30552 2229 ft 165 kts 226°
2026-04-30 18:45 9.15719 -79.31368 1986 ft 155 kts 227°
2026-04-30 18:45 9.14969 -79.32143 2009 ft 156 kts 226°
2026-04-30 18:46 9.14202 -79.32935 1991 ft 157 kts 227°
2026-04-30 18:46 9.13449 -79.33722 1998 ft 159 kts 229°
2026-04-30 18:46 9.12882 -79.34692 1737 ft 160 kts 248°
2026-04-30 18:46 9.12297 -79.35647 1359 ft 161 kts 230°
2026-04-30 18:47 9.11430 -79.36322 941 ft 156 kts 209°
2026-04-30 18:47 9.10501 -79.36824 594 ft 147 kts 208°
2026-04-30 18:47 9.09632 -79.37318 229 ft 141 kts 212°
2026-04-30 18:47 9.08814 -79.37804 46 ft 130 kts 213°
2026-04-30 18:48 9.08332 -79.38101 46 ft 111 kts 210°
2026-04-30 18:48 9.07799 -79.38421 52 ft 67 kts 211°
2026-04-30 18:48 9.07530 -79.38582 51 ft 36 kts 211°
2026-04-30 18:48 9.07380 -79.38620 52 ft 21 kts 141°
2026-04-30 18:49 9.07376 -79.38501 48 ft 20 kts 34°
2026-04-30 18:49 9.07494 -79.38424 51 ft 20 kts 32°
2026-04-30 18:49 9.07616 -79.38351 51 ft 21 kts 29°
2026-04-30 18:49 9.07745 -79.38280 50 ft 21 kts 30°
2026-04-30 18:50 9.07871 -79.38202 49 ft 21 kts 32°
2026-04-30 18:50 9.07997 -79.38127 48 ft 22 kts 31°
2026-04-30 18:50 9.08132 -79.38045 47 ft 24 kts 31°
2026-04-30 18:50 9.08259 -79.37935 46 ft 24 kts 46°
2026-04-30 18:51 9.08377 -79.37813 45 ft 24 kts 46°
2026-04-30 18:51 9.08495 -79.37690 45 ft 24 kts 46°
2026-04-30 18:51 9.08598 -79.37599 44 ft 12 kts 72°
2026-04-30 18:51 9.08612 -79.37522 44 ft 10 kts 34°
2026-04-30 18:52 9.08627 -79.37511 44 ft 0 kts 33°